Regional Weather Roundup
Issued by NWS

Home | Current Version | Previous Version | Graphics & Text | Print | Product List | Glossary On
Versions: 1 2 3 4 5 6 7 8 9 10 11 12 13 14 15 16 17 18 19 20 21 22 23 24 25 26 27 28 29 30 31 32 33 34 35 36 37 38 39 40 41 42 43 44 45 46 47 48 49 50
000
ASUS43 KLSX 180410
RWRMO

WEATHER SUMMARY FOR MISSOURI
NATIONAL WEATHER SERVICE SPRINGFIELD MO
1000 PM CST TUE JAN 17 2017

NOTE: "FAIR" INDICATES FEW OR NO CLOUDS BELOW 12,000 FEET WITH NO
       SIGNIFICANT WEATHER AND/OR OBSTRUCTIONS TO VISIBILITY.
       CURRENT SKY AND/OR WEATHER CONDITIONS ARE NOT AVAILABLE FOR
       CHILLICOTHE AND FARMINGTON.

MOZ001>031-035>038-043-044-053-054-180500-
...NORTHERN AND WESTERN MISSOURI...

CITY           SKY/WX    TMP DP  RH WIND       PRES   REMARKS
KANSAS CTY INT CLOUDY    27  24  89 S6        30.15R WCI  20
KANSAS C DTWN  CLEAR     35  33  92 CALM      30.16S
LEE`S SUMMIT   CLEAR     33  31  92 SW8       30.16F WCI  26
ST JOSEPH      FOG       26  26 100 CALM      30.17R VSB 1/2
CHILLICOTHE      N/A     35  31  85 SW3       30.18R
KIRKSVILLE     CLOUDY    36  33  89 W3        30.14R

$$
MOZ066>068-077>081-088>096-101>105-180500-
...SOUTHWEST MISSOURI...

CITY           SKY/WX    TMP DP  RH WIND       PRES   REMARKS
SPRINGFIELD    CLOUDY    37  35  92 NW5       30.18R
JOPLIN         CLOUDY    38  36  92 S6        30.21R
BRANSON        CLOUDY    37  36  93 W3        30.19R

$$
MOZ032>034-039>042-045>050-055>058-069>072-180500-
...CENTRAL MISSOURI...

CITY           SKY/WX    TMP DP  RH WIND       PRES   REMARKS
COLUMBIA       CLOUDY    38  36  92 W6        30.17S
JEFFERSON CITY CLOUDY    39  35  86 W8        30.19F
ROLLA          CLOUDY    37  36  96 W6        30.16S
SEDALIA        CLOUDY    38  34  85 W5        30.18S
WHITEMAN AFB   PTCLDY    33  33 100 SW5       30.16S WCI  28
WARRENSBURG    MOCLDY    34  32  93 CALM      30.17S
OSAGE BEACH    CLOUDY    38  35  89 W5        30.19F

$$
MOZ051-052-059>065-180500-
...EAST CENTRAL MISSOURI...

CITY           SKY/WX    TMP DP  RH WIND       PRES   REMARKS
ST LOUIS INTL  CLOUDY    42  35  76 W12       30.17S
SPIRIT OF STL  CLOUDY    41  37  86 W7        30.17S
ST CHARLES     CLOUDY    40  37  89 W12       30.17R

$$
MOZ072>076-082>087-097>100-106>115-180500-
...SOUTH CENTRAL AND SOUTHEAST MISSOURI...

CITY           SKY/WX    TMP DP  RH WIND       PRES   REMARKS
CAPE GIRARDEAU CLOUDY    44  40  85 W3        30.18R
FARMINGTON     CLOUDY    39  36  89 NW8       30.17S
POPLAR BLUFF   CLOUDY    45  39  79 NW7       30.18R
WEST PLAINS    CLOUDY    39  36  89 NW5       30.18R

$$




USA.gov is the U.S. government's official web portal to all federal, state and local government web resources and services.